Location: Gad�tanya
(48.0500°N, 20.8500°E)
Time: 11:18:31
(UTC+00:00)

Cosmos 1340 - Pass Details

Date: 05 July 2020
Orbit: 502 x 505 km, 81.2° (Epoch: 14 August)

Event Time Altitude Azimuth Distance (km) Brightness Sun altitude
Exits shadow 21:59:43 36° 115° (ESE) 809 3.3 -18.7°
Maximum altitude 22:00:14 38° 95° (E) 778 3.4 -18.7°
Drops below altitude 10° 22:03:45 10° 26° (NNE) 1,723 6.1 -18.8°
Sets 22:05:58 0° 19° (NNE) 2,614 7.4 -18.8°
